Location: San Antonio
(29.4240°N, 98.4930°W)
Time: 05:53:02
(UTC-06:00)

ISS - All Passes

Search period start: 08 December 2016 00:00
Search period end: 18 December 2016 00:00
Orbit: 401 x 410 km, 51.6° (Epoch: 08 December)

Date Brightness Start Highest point End Pass type
(mag) Time Alt. Az. Time Alt. Az. Time Alt. Az.
08 Dec - 00:33:21 10° W 00:35:32 17° SW 00:37:43 10° SSW night (unlit)
08 Dec - 13:56:26 10° SSE 13:58:32 16° SE 14:00:38 10° E daylight
08 Dec - 15:31:56 10° WSW 15:34:49 28° NW 15:37:44 10° NNE daylight
08 Dec - 22:05:07 10° N 22:07:09 15° NE 22:09:10 10° ENE night (unlit)
08 Dec - 23:40:39 10° WNW 23:43:45 37° SW 23:46:48 10° SSE night (unlit)
09 Dec - 14:39:37 10° SW 14:42:50 63° NW 14:46:05 10° NE daylight
09 Dec - 22:48:33 10° NW 22:51:51 88° NE 22:55:09 10° SE night (unlit)
10 Dec - 13:47:46 10° SSW 13:50:56 51° SE 13:54:06 10° NE daylight
10 Dec - 15:26:13 10° WNW 15:27:38 12° NW 15:29:02 10° N daylight
10 Dec - 21:56:47 10° NNW 21:59:53 37° NE 22:02:59 10° ESE night (unlit)
10 Dec - 23:34:40 10° W 23:36:05 12° SW 23:37:29 10° SSW night (unlit)
11 Dec - 12:56:31 10° S 12:59:04 22° SE 13:01:40 10° ENE daylight
11 Dec - 14:32:51 10° W 14:35:29 22° NW 14:38:06 10° NNE daylight
11 Dec - 21:05:21 10° N 21:07:49 19° NE 21:10:15 10° E night (unlit)
11 Dec - 22:41:27 10° WNW 22:44:17 27° SW 22:47:07 10° S night (unlit)
12 Dec - 13:40:16 10° WSW 13:43:25 45° NW 13:46:34 10° NNE daylight
12 Dec - 20:14:48 10° NNE 20:15:36 11° NE 20:16:25 10° NE night (unlit)
12 Dec - 21:49:07 10° NW 21:52:24 65° SW 21:55:39 10° SE night (unlit)
13 Dec - 12:48:11 10° SW 12:51:26 74° SE 12:54:41 10° NE daylight
13 Dec - 20:57:12 10° NNW 21:00:26 51° NE 21:03:38 10° ESE night (unlit)
14 Dec - 11:56:38 10° S 11:59:31 29° SE 12:02:24 10° ENE daylight
14 Dec - 13:33:46 10° W 13:36:01 17° NW 13:38:18 10° N daylight
14 Dec - 20:05:35 10° NNW 20:08:20 24° NE 20:11:05 10° E night (unlit)
14 Dec - 21:42:13 10° WNW 21:44:42 20° SW 21:47:10 10° S night (unlit)
15 Dec - 11:06:00 10° SSE 11:07:40 13° SE 11:09:20 10° E daylight
15 Dec - 12:40:54 10° WSW 12:43:53 33° NW 12:46:53 10° NNE daylight
15 Dec - 19:14:27 10° N 19:16:09 13° NE 19:17:50 10° ENE visible
15 Dec - 20:49:38 10° WNW 20:52:49 45° SW 20:55:58 10° SSE night (unlit)
16 Dec - 11:48:35 10° SW 11:51:50 78° NW 11:55:06 10° NE daylight
16 Dec - 19:57:32 10° NW 20:00:49 72° NE 20:04:06 10° SE visible
17 Dec - 10:56:47 10° SSW 10:59:51 41° SE 11:02:57 10° ENE daylight
17 Dec - 12:34:41 10° WNW 12:36:29 14° NW 12:38:16 10° N daylight
17 Dec - 19:05:45 10° NNW 19:08:44 31° NE 19:11:43 10° ESE visible
17 Dec - 20:43:04 10° W 20:45:00 15° SW 20:46:54 10° SSW night (unlit)
